Location: Verona
(45.4384°N, 10.9916°E)
Time: 15:15:32
(UTC+01:00)

ISS - Visible Passes

Search period start: 29 February 2024 00:00
Search period end: 10 March 2024 00:00
Orbit: 414 x 422 km, 51.6° (Epoch: 29 February)

Date Brightness Start Highest point End Pass type
(mag) Time Alt. Az. Time Alt. Az. Time Alt. Az.
29 Feb -1.6 04:35:01 23° NNE 04:35:01 23° NNE 04:36:59 10° ENE visible
29 Feb -2.7 06:08:06 10° NW 06:11:21 40° NNE 06:14:35 10° E visible
01 Mar -0.1 03:48:58 10° NE 03:48:58 10° NE 03:48:58 10° NE visible
01 Mar -2.4 05:21:53 23° NNW 05:23:20 33° NNE 05:26:27 10° E visible
02 Mar -1.9 04:35:50 27° NNE 04:35:50 27° NNE 04:38:16 10° ENE visible
02 Mar -3.6 06:09:00 10° WNW 06:12:23 76° NNE 06:15:47 10° ESE visible
03 Mar -0.3 03:49:48 12° ENE 03:49:48 12° ENE 03:50:05 10° ENE visible
03 Mar -3.1 05:22:44 26° NW 05:24:23 53° NNE 05:27:42 10° E visible
04 Mar -2.4 04:36:44 38° NE 04:36:44 38° NE 04:39:31 10° E visible
04 Mar -3.3 06:09:52 10° WNW 06:13:08 46° SW 06:16:23 10° SE visible
05 Mar -0.4 03:50:47 13° ENE 03:50:47 13° ENE 03:51:16 10° E visible
05 Mar -3.8 05:23:44 32° WNW 05:25:10 74° SSW 05:28:32 10° SE visible
06 Mar -2.9 04:37:52 49° E 04:37:52 49° E 04:40:28 10° ESE visible
06 Mar -2.1 06:11:05 10° W 06:13:33 19° SW 06:16:01 10° S visible
07 Mar -0.4 03:52:07 11° E 03:52:07 11° E 03:52:16 10° E visible
07 Mar -2.8 05:25:04 28° WSW 05:25:37 30° SW 05:28:37 10° SSE visible
08 Mar -1.8 04:39:26 22° SSE 04:39:26 22° SSE 04:40:52 10° SE visible
09 Mar -1.3 05:26:56 11° SSW 05:26:56 11° SSW 05:27:10 10° SSW visible
